{"data":{"norad_id":63256,"intl_designator":"2025-052AY","name":"FIRESAT 0 (MUSAT-4)","alt_names":[],"object_type":"PAYLOAD","status":"ACTIVE","operator":null,"country":"US","launch_date":"2025-03-15","launch_site_code":"AFWTR","launch_vehicle":null,"mission":null,"orbit_class":"UNKNOWN","rcs_meters":null,"size_class":null,"mass_kg":null,"dimensions":null,"purposes":[],"wikipedia_slug":null,"has_3d_model":false,"image_url":null,"decayed_at":null,"tle_current":{"epoch":"2026-09-22T15:36:31.935168Z","epoch_age_seconds":123124,"freshness":"FRESH","line1":"1 63256U 25052AY  26265.65036962  .00000838  00000+0  85773-4 0  9996","line2":"2 63256  97.6815 154.6245 0001099  58.2340 301.8986 14.93095461 83130","mean_motion":14.93095461,"eccentricity":0.0001099,"inclination_deg":97.6815,"raan_deg":154.6245,"arg_perigee_deg":58.234,"mean_anomaly_deg":301.8986,"bstar":8.5773e-5,"rev_number":8313,"period_min":96.443933935447,"perigee_km":587.52493405243,"apogee_km":589.05615482669,"semimajor_km":6966.4275444396,"source":"CELESTRAK","updated_at":"2026-09-23T09:00:21.939511Z"}}}